Date,TemperatureHighF,TemperatureAvgF,TemperatureLowF,DewpointHighF,DewpointAvgF,DewpointLowF,HumidityHigh,HumidityAvg,HumidityLow,PressureMaxIn,PressureMinIn,WindSpeedMaxMPH,WindSpeedAvgMPH,GustSpeedMaxMPH,PrecipitationSumIn
2013-1-1,15.0,2.3,-15.0,4.0,-5.8,-18.0,85,70,44,0.00,40.00,12,-80,22,0.00
2013-1-2,23.0,18.3,13.0,13.0,9.7,6.0,93,71,53,0.00,40.00,7,4,12,0.00
2013-1-3,23.0,17.6,9.0,19.0,14.1,6.0,91,86,81,0.00,40.00,7,5,18,0.00
2013-1-4,32.0,18.5,7.0,16.0,11.2,5.0,95,76,48,0.00,40.00,12,6,17,0.00
2013-1-5,37.0,21.0,3.0,24.0,13.9,1.0,94,77,42,0.00,40.00,10,5,16,0.00
2013-1-6,29.0,21.0,5.0,22.0,16.0,3.0,94,82,68,0.00,40.00,7,4,16,0.00
2013-1-7,39.0,21.4,5.0,24.0,15.4,3.0,98,80,49,0.00,40.00,12,5,21,0.00
2013-1-8,40.0,27.4,9.0,31.0,21.9,8.0,98,81,56,0.00,40.00,14,4,21,0.00
2013-1-9,42.0,35.5,27.0,31.0,26.8,21.0,95,72,46,0.00,40.00,16,10,29,0.00
2013-1-10,44.0,34.3,24.0,43.0,28.7,23.0,99,83,42,0.00,40.00,9,4,14,0.00
2013-1-11,49.0,45.5,43.0,48.0,45.3,43.0,99,99,99,0.00,40.00,8,4,14,0.00
2013-1-12,50.0,40.6,33.0,50.0,32.5,23.0,99,74,61,0.00,40.00,21,11,34,0.00
2013-1-13,33.0,31.6,29.0,24.0,22.8,20.0,74,70,65,0.00,40.00,10,6,19,0.00
2013-1-14,35.0,30.9,28.0,27.0,24.4,22.0,90,78,62,0.00,40.00,10,4,17,0.00
2013-1-15,42.0,34.8,28.0,31.0,24.6,19.0,91,69,40,0.00,40.00,11,5,21,0.00
2013-1-16,42.0,38.6,35.0,38.0,29.2,15.0,86,70,41,0.00,40.00,12,8,21,0.00
2013-1-17,36.0,33.2,31.0,27.0,17.8,12.0,87,55,42,0.00,40.00,11,5,18,0.00
2013-1-18,50.0,40.6,31.0,42.0,34.1,27.0,92,79,54,0.00,40.00,12,6,21,0.00
2013-1-19,50.0,42.3,31.0,44.0,34.1,16.0,97,75,46,0.00,40.00,29,9,53,0.00
2013-1-20,33.0,30.6,29.0,20.0,17.2,13.0,67,58,45,0.00,40.00,13,7,31,0.00
2013-5-16,-200.0,0.0,200.0,-99.9,-99.9,-99.9,24,24,22,0.00,40.00,9,6,15,0.00
2013-5-20,76.0,65.5,61.0,59.0,57.1,52.0,93,76,44,0.00,40.00,5,2,17,0.00
2013-5-21,72.0,64.8,57.0,63.0,57.5,52.0,97,80,54,0.00,40.00,11,-5,21,0.00
2013-5-22,61.0,56.2,51.0,60.0,55.1,50.0,97,96,93,0.00,40.00,16,5,26,0.00
2013-5-23,62.0,52.0,44.0,50.0,37.6,28.0,96,64,29,0.00,40.00,17,12,28,0.00
2013-5-24,66.0,50.5,33.0,45.0,32.6,26.0,97,58,23,0.00,40.00,7,2,12,0.00
2013-5-25,65.0,56.1,49.0,45.0,38.5,33.0,86,55,30,0.00,40.00,9,5,17,0.00
2013-5-26,65.0,55.2,43.0,46.0,37.3,34.0,86,55,32,0.00,40.00,10,5,19,0.00
2013-5-27,59.0,55.5,52.0,53.0,44.9,37.0,97,69,51,0.00,40.00,13,7,22,0.00
2013-5-28,66.0,56.8,51.0,65.0,55.9,51.0,97,97,96,0.00,40.00,9,-37,13,0.00
2013-5-29,76.0,67.5,65.0,70.0,66.1,64.0,97,96,80,0.00,40.00,12,2,21,0.00
2013-5-30,83.0,75.2,69.0,74.0,70.7,68.0,96,87,62,0.00,40.00,14,7,22,0.00
2013-5-31,82.0,74.1,68.0,69.0,63.8,56.0,94,73,42,0.00,40.00,14,9,26,0.00
2013-6-1,78.0,69.8,62.0,67.0,59.9,-99.9,96,77,41,0.00,40.00,12,5,21,0.00
2013-6-2,66.0,60.4,56.0,59.0,48.8,42.0,96,68,42,0.00,40.00,13,7,21,0.00
2013-6-3,76.0,64.4,52.0,60.0,49.3,39.0,98,65,29,0.00,40.00,6,2,13,0.00
2013-6-4,65.0,62.3,61.0,62.0,58.3,53.0,97,88,68,0.00,40.00,7,5,13,0.00
2013-6-5,65.0,61.0,60.0,62.0,59.6,59.0,97,95,79,0.00,40.00,8,5,19,0.00
2013-6-6,62.0,61.0,60.0,61.0,59.6,57.0,97,95,88,0.00,40.00,7,5,15,0.00
2013-6-7,76.0,68.0,60.0,63.0,54.1,47.0,96,64,36,0.00,40.00,8,3,13,0.00
2013-6-8,73.0,67.4,62.0,65.0,57.1,48.0,97,73,41,0.00,40.00,9,-99,17,0.00
2013-6-9,78.0,70.2,62.0,70.0,62.9,55.0,96,80,56,0.00,40.00,14,6,22,0.00
2013-6-10,78.0,68.3,64.0,68.0,66.2,63.0,96,93,63,0.00,40.00,6,3,7,0.00
2013-6-12,76.0,67.3,62.0,64.0,61.0,58.0,96,82,56,0.00,40.00,13,5,21,0.00
2013-6-13,76.0,66.0,57.0,60.0,54.1,48.0,96,70,39,0.00,40.00,12,7,21,0.00
2013-6-14,78.0,71.2,58.0,57.0,48.9,44.0,88,48,33,0.00,40.00,8,4,14,0.00
2013-6-15,80.0,68.0,61.0,66.0,62.6,57.0,97,85,62,0.00,40.00,14,5,26,0.00
2013-6-16,80.0,67.7,54.0,60.0,52.8,44.0,97,66,28,0.00,40.00,9,4,17,0.00
2013-6-17,78.0,64.4,52.0,61.0,54.9,51.0,96,75,39,0.00,40.00,11,4,26,0.00
2013-6-18,74.0,63.1,53.0,59.0,47.1,37.0,94,60,32,0.00,40.00,9,5,17,0.00
2013-6-19,78.0,63.8,47.0,59.0,48.6,42.0,97,63,36,0.00,40.00,6,2,12,0.00
2013-6-20,84.0,67.8,56.0,58.0,55.6,51.0,96,71,35,0.00,40.00,16,5,21,0.00
2013-6-22,81.0,74.5,67.0,70.0,66.6,62.0,96,78,52,0.00,40.00,13,6,24,0.00
2013-6-23,82.0,73.7,65.0,70.0,65.4,62.0,96,77,54,0.00,40.00,14,8,29,0.00
2013-6-24,80.0,71.5,61.0,73.0,67.1,60.0,97,87,69,0.00,40.00,9,3,17,0.00
2013-6-25,82.0,72.7,64.0,70.0,66.3,63.0,97,82,60,0.00,40.00,9,3,13,0.00
2013-6-26,85.0,72.9,68.0,72.0,69.8,67.0,97,91,62,0.00,40.00,7,3,14,0.00
2013-6-27,85.0,73.8,62.0,72.0,62.4,54.0,97,72,37,0.00,40.00,13,4,27,0.00
2013-6-28,72.0,67.2,62.0,69.0,61.2,54.0,96,82,63,0.00,40.00,11,5,17,0.00
2013-6-29,72.0,64.8,60.0,64.0,59.0,52.0,97,83,57,0.00,40.00,13,8,23,0.00
2013-6-30,81.0,67.5,53.0,56.0,48.1,42.0,95,56,25,0.00,40.00,12,7,17,0.00
2013-7-1,84.0,68.7,52.0,59.0,51.4,46.0,97,61,30,0.00,40.00,7,3,14,0.00
2013-7-2,78.0,67.1,55.0,57.0,51.2,45.0,94,62,32,0.00,40.00,9,5,18,0.00
2013-7-8,85.0,74.7,70.0,72.0,69.5,68.0,95,85,57,0.00,40.00,3,1,6,0.00
2013-7-9,85.0,74.8,66.0,74.0,68.8,65.0,96,84,57,0.00,40.00,14,4,22,0.00
2013-7-10,76.0,69.2,57.0,70.0,53.1,-99.9,96,63,39,0.00,40.00,12,6,22,0.00
2013-7-11,83.0,69.0,55.0,62.0,55.3,49.0,98,68,32,0.00,40.00,4,1,9,0.00
2013-7-12,83.0,70.3,56.0,63.0,55.1,50.0,97,65,33,0.00,40.00,12,4,18,0.00
2013-7-13,80.0,70.7,60.0,65.0,58.8,54.0,95,70,40,0.00,40.00,10,3,16,0.00
2013-7-14,87.0,73.7,57.0,67.0,61.0,56.0,96,69,39,0.00,40.00,6,3,16,0.00
2013-7-15,89.0,76.5,64.0,74.0,67.1,63.0,96,76,48,0.00,40.00,9,2,14,0.00
2013-7-16,91.0,80.0,71.0,78.0,71.6,67.0,96,78,47,0.00,40.00,9,4,14,0.00
2013-7-17,92.0,80.7,68.0,76.0,68.7,63.0,97,72,38,0.00,40.00,9,3,16,0.00
2013-7-18,91.0,79.4,69.0,73.0,68.1,65.0,96,72,42,0.00,40.00,14,5,26,0.00
2013-7-19,88.0,80.2,67.0,72.0,64.0,56.0,90,60,37,0.00,40.00,14,7,22,0.00
2013-7-20,84.0,69.8,59.0,63.0,55.7,-99.9,96,68,34,0.00,40.00,9,3,12,0.00
2013-7-21,69.0,63.9,60.0,64.0,59.6,54.0,97,86,67,0.00,40.00,8,4,14,0.00
2013-7-22,85.0,70.1,60.0,71.0,64.1,59.0,97,83,56,0.00,40.00,14,5,22,0.00
2013-7-23,73.0,65.0,55.0,66.0,52.1,47.0,93,65,40,0.00,40.00,16,8,24,0.00
2013-7-24,77.0,61.2,47.0,59.0,48.3,43.0,97,70,31,0.00,40.00,5,2,11,0.00
2013-7-25,81.0,65.0,52.0,65.0,58.4,51.0,97,83,48,0.00,40.00,11,-33,17,0.00
2013-7-26,73.0,64.1,54.0,67.0,58.1,46.0,97,83,42,0.00,40.00,11,6,23,0.00
2013-7-27,57.0,52.3,47.0,50.0,46.3,43.0,94,80,67,0.00,40.00,9,6,20,0.00
2013-7-28,66.0,56.6,48.0,53.0,49.8,47.0,97,80,54,0.00,40.00,13,6,22,0.00
2013-7-29,77.0,63.9,49.0,56.0,50.8,47.0,96,67,38,0.00,40.00,8,3,13,0.00
2013-7-30,78.0,65.8,54.0,64.0,57.4,53.0,96,77,48,0.00,40.00,5,2,10,0.00
2013-7-31,71.0,63.9,60.0,66.0,61.9,59.0,96,93,75,0.00,40.00,5,2,11,0.00
2013-8-2,76.0,70.9,57.0,57.0,50.0,45.0,94,52,35,0.00,40.00,9,5,17,0.00
2013-8-3,75.0,62.7,49.0,60.0,46.9,40.0,98,63,32,0.00,40.00,9,4,18,0.00
2013-8-4,76.0,62.0,46.0,58.0,48.1,42.0,97,67,32,0.00,40.00,6,2,9,0.00
2013-8-5,70.0,61.8,50.0,63.0,58.0,49.0,97,88,71,0.00,40.00,9,4,15,0.00
2013-8-6,83.0,72.1,63.0,67.0,60.3,50.0,97,71,34,0.00,40.00,9,4,16,0.00
2013-8-7,74.0,62.1,58.0,63.0,59.4,57.0,98,92,56,0.00,40.00,7,4,16,0.00
2013-8-8,78.0,69.2,52.0,60.0,49.4,41.0,97,55,29,0.00,40.00,6,2,11,0.00
2013-8-9,76.0,66.5,57.0,62.0,53.2,45.0,97,67,35,0.00,40.00,7,4,17,0.00
2013-8-10,74.0,64.2,53.0,58.0,52.6,47.0,96,70,39,0.00,40.00,6,2,12,0.00
2013-8-11,72.0,61.1,53.0,65.0,58.0,52.0,97,90,62,0.00,40.00,4,2,8,0.00
2013-8-12,79.0,64.9,55.0,69.0,55.1,47.0,97,76,33,0.00,40.00,9,4,19,0.00
2013-8-13,71.0,57.7,44.0,54.0,42.9,-99.9,97,66,33,0.00,40.00,11,5,17,0.00
2013-8-14,74.0,58.8,42.0,56.0,42.7,-99.9,98,67,31,0.00,40.00,6,2,13,0.00
2013-8-15,78.0,60.5,51.0,58.0,42.3,-99.9,97,65,27,0.00,40.00,9,3,14,0.00
2013-8-16,81.0,63.8,47.0,58.0,46.3,-99.9,97,65,28,0.00,40.00,5,1,11,0.00
2013-8-17,83.0,64.5,49.0,63.0,49.4,-99.9,97,68,29,0.00,40.00,4,1,9,0.00
2013-8-18,81.0,66.0,49.0,60.0,52.7,48.0,97,69,33,0.00,40.00,9,3,16,0.00
2013-8-19,82.0,64.3,50.0,63.0,51.7,-99.9,97,74,41,0.00,40.00,10,4,21,0.00
2013-8-20,86.0,73.1,58.0,71.0,63.0,57.0,97,74,44,0.00,40.00,15,5,22,0.00
2013-8-21,88.0,76.7,64.0,71.0,67.1,63.0,96,74,50,0.00,40.00,14,7,27,0.00
2013-8-22,85.0,69.5,60.0,65.0,58.0,45.0,97,75,26,0.00,40.00,8,2,15,0.00
2013-8-23,86.0,69.1,55.0,60.0,53.8,49.0,96,65,31,0.00,40.00,8,3,13,0.00
2013-8-24,85.0,69.8,56.0,68.0,55.7,-99.9,96,67,35,0.00,40.00,9,4,18,0.00
2013-8-25,92.0,80.9,71.0,72.0,68.8,67.0,92,69,44,0.00,40.00,14,8,24,0.00
2013-8-26,92.0,80.7,69.0,76.0,69.7,66.0,94,72,49,0.00,40.00,15,6,23,0.00
2013-8-27,94.0,80.6,72.0,76.0,71.1,67.0,96,77,41,0.00,40.00,7,3,13,0.00
2013-8-28,90.0,82.8,74.0,69.0,64.8,62.0,80,57,39,0.00,40.00,6,4,12,0.00
2013-8-29,89.0,77.2,63.0,72.0,67.1,62.0,97,75,47,0.00,40.00,10,4,17,0.00
2013-8-30,86.0,77.1,69.0,75.0,67.5,61.0,96,75,44,0.00,40.00,11,6,17,0.00
2013-8-31,85.0,68.7,56.0,64.0,57.5,-99.9,97,74,36,0.00,40.00,6,3,13,0.00
2013-9-1,79.0,71.4,63.0,70.0,60.3,52.0,96,72,41,0.00,40.00,13,5,22,0.00
2013-9-2,71.0,61.4,48.0,59.0,50.4,43.0,96,70,38,0.00,40.00,9,6,17,0.00
2013-9-3,76.0,57.4,39.0,55.0,43.8,39.0,99,68,29,0.00,40.00,9,3,15,0.00
2013-9-4,85.0,69.3,46.0,62.0,55.4,46.0,97,66,39,0.00,40.00,9,4,14,0.00
2013-9-5,80.0,66.4,58.0,59.0,50.7,41.0,96,63,27,0.00,40.00,9,4,14,0.00
2013-9-6,88.0,70.6,54.0,65.0,55.4,47.0,92,63,36,0.00,40.00,14,5,24,0.00
2013-9-7,92.0,76.3,66.0,69.0,61.6,-99.9,93,66,35,0.00,40.00,10,4,26,0.00
2013-9-8,76.0,68.2,58.0,69.0,56.8,49.0,96,70,42,0.00,40.00,12,7,21,0.00
2013-9-9,91.0,75.3,63.0,71.0,65.8,62.0,96,75,48,0.00,40.00,14,6,22,0.00
2013-9-10,89.0,78.5,69.0,69.0,64.3,59.0,96,65,41,0.00,40.00,10,5,16,0.00
2013-9-11,85.0,71.5,57.0,68.0,58.8,49.0,96,71,30,0.00,40.00,9,4,21,0.00
2013-9-12,70.0,60.0,50.0,54.0,47.1,38.0,96,67,34,0.00,40.00,12,6,24,0.00
2013-9-13,69.0,51.0,36.0,45.0,36.3,29.0,98,67,23,0.00,40.00,6,2,13,0.00
2013-9-14,73.0,55.0,35.0,53.0,37.2,-99.9,99,61,27,0.00,40.00,10,4,20,0.00
2013-9-15,68.0,57.5,52.0,54.0,51.4,43.0,97,82,51,0.00,40.00,12,6,26,0.00
2013-9-16,65.0,49.9,35.0,44.0,36.8,30.0,98,68,27,0.00,40.00,10,4,15,0.00
2013-9-17,66.0,54.3,35.0,56.0,45.6,35.0,98,77,41,0.00,40.00,10,4,16,0.00
2013-9-18,68.0,58.9,57.0,65.0,57.9,56.0,97,96,90,0.00,40.00,6,3,11,0.00
2013-9-19,83.0,72.6,66.0,73.0,67.4,65.0,97,86,57,0.00,40.00,14,5,23,0.00
2013-9-20,67.0,61.4,52.0,66.0,57.8,50.0,97,89,63,0.00,40.00,12,6,22,0.00
2013-9-21,60.0,50.2,42.0,50.0,41.4,-99.9,98,77,47,0.00,40.00,10,4,22,0.00
2013-9-22,65.0,50.1,35.0,44.0,37.5,34.0,98,68,33,0.00,40.00,7,3,11,0.00
2013-9-23,69.0,55.0,42.0,50.0,45.0,41.0,97,73,41,0.00,40.00,7,4,18,0.00
2013-9-24,74.0,57.2,43.0,53.0,46.5,42.0,98,74,32,0.00,40.00,7,3,11,0.00
2013-9-25,70.0,54.8,41.0,53.0,45.0,40.0,98,75,38,0.00,40.00,8,3,15,0.00
2013-9-26,75.0,57.8,41.0,57.0,47.4,40.0,98,74,33,0.00,40.00,11,4,16,0.00
2013-9-27,81.0,65.5,50.0,53.0,48.7,43.0,95,60,30,0.00,40.00,9,5,22,0.00
2013-9-28,78.0,61.1,50.0,65.0,51.8,-99.9,97,76,45,0.00,40.00,14,7,31,0.00
2013-9-29,71.0,54.6,39.0,55.0,43.1,38.0,98,73,31,0.00,40.00,9,4,18,0.00
2013-9-30,73.0,57.1,45.0,49.0,43.4,37.0,96,67,28,0.00,40.00,18,7,32,0.00
2013-10-1,56.0,56.0,56.0,38.0,38.0,38.0,51,51,51,0.00,40.00,0,0,2,0.00
2013-10-2,76.0,56.8,35.0,45.0,36.5,31.0,99,58,19,0.00,40.00,6,2,16,0.00
2013-10-3,69.0,60.5,53.0,60.0,51.3,38.0,96,74,43,0.00,40.00,11,6,16,0.00
2013-10-4,57.0,56.2,55.0,56.0,55.2,54.0,97,96,93,0.00,40.00,12,7,19,0.00
2013-10-5,65.0,59.8,56.0,64.0,59.0,55.0,98,97,97,0.00,40.00,12,7,22,0.00
2013-10-6,57.0,48.9,39.0,56.0,40.4,32.0,97,76,39,0.00,40.00,7,3,13,0.00
2013-10-7,64.0,50.4,39.0,47.0,41.3,33.0,96,77,32,0.00,40.00,10,4,19,0.00
2013-10-8,74.0,54.0,36.0,50.0,39.4,34.0,98,67,24,0.00,40.00,16,4,26,0.00
2013-10-9,74.0,60.5,46.0,48.0,44.8,42.0,96,62,32,0.00,40.00,11,4,19,0.00
2013-10-10,74.0,55.7,39.0,53.0,43.6,39.0,98,70,30,0.00,40.00,9,3,15,0.00
2013-10-11,75.0,61.1,47.0,54.0,50.6,46.0,96,72,42,0.00,40.00,14,6,29,0.00
2013-10-12,64.0,58.3,48.0,57.0,43.7,-99.9,89,63,39,0.00,40.00,13,7,26,0.00
2013-10-13,60.0,46.7,33.0,43.0,34.6,27.0,99,70,30,0.00,40.00,10,4,20,0.00
2013-10-14,59.0,45.0,29.0,42.0,34.0,29.0,99,71,35,0.00,40.00,11,4,19,0.00
2013-10-15,56.0,50.7,47.0,55.0,47.9,41.0,97,91,75,0.00,40.00,10,6,21,0.00
2013-10-16,50.0,46.9,38.0,47.0,43.1,36.0,98,87,70,0.00,40.00,8,4,15,0.00
2013-10-17,55.0,40.5,31.0,48.0,34.9,30.0,98,84,39,0.00,40.00,7,2,17,0.00
2013-10-18,45.0,41.7,33.0,44.0,38.9,32.0,97,90,62,0.00,40.00,10,4,20,0.00
2013-10-19,51.0,36.2,27.0,41.0,30.9,-99.9,99,87,39,0.00,40.00,11,3,17,0.00
2013-10-20,44.0,37.1,31.0,43.0,36.8,31.0,99,99,94,0.00,40.00,14,4,24,0.00
2013-10-21,42.0,35.5,32.0,40.0,25.3,15.0,94,69,42,0.00,40.00,13,9,23,0.00
2013-10-22,45.0,35.7,25.0,29.0,23.4,20.0,95,64,38,0.00,40.00,9,5,15,0.00
2013-10-23,38.0,32.3,24.0,29.0,25.2,21.0,96,76,56,0.00,40.00,9,4,16,0.00
2013-10-24,42.0,35.2,32.0,31.0,25.0,21.0,92,67,44,0.00,40.00,9,4,22,0.00
2013-10-25,50.0,40.5,31.0,31.0,27.1,21.0,92,63,38,0.00,40.00,16,7,29,0.00
2013-10-26,51.0,44.6,40.0,35.0,27.0,-99.9,66,52,42,0.00,40.00,16,8,29,0.00
2013-10-27,55.0,39.6,27.0,33.0,26.8,23.0,98,66,28,0.00,40.00,14,6,22,0.00
2013-10-28,44.0,35.3,27.0,32.0,22.6,-99.9,87,65,37,0.00,40.00,13,7,19,0.00
2013-10-29,44.0,35.0,24.0,40.0,29.8,21.0,96,82,70,0.00,40.00,9,5,15,0.00
2013-10-30,53.0,47.2,40.0,52.0,46.3,40.0,98,96,93,0.00,40.00,6,4,18,0.00
2013-10-31,55.0,49.9,41.0,54.0,49.3,41.0,98,98,98,0.00,40.00,11,5,22,0.00
2013-11-1,46.0,42.4,38.0,42.0,39.3,36.0,98,90,73,0.00,40.00,12,6,24,0.00